Location: Sauerland
(51.1981°N, 7.8053°E)
Time: 18:45:25
(UTC+01:00)

ISS - Pass Details

Date: 18 February 2026
Orbit: 416 x 427 km, 51.6° (Epoch: 6 March)

Event Time Altitude Azimuth Distance (km) Brightness Sun altitude
Exits shadow 04:54:29 20° 121° (ESE) 1,034 -1.4 -25.9°
Drops below altitude 10° 04:56:16 10° 92° (E) 1,494 0.0 -25.6°
Sets 04:58:39 0° 77° (ENE) 2,360 1.4 -25.2°
